ONEWEB-0107

Last updated on April 25, 2021, 12:02 a.m. UTC

1 48048U 21025G   21114.58336806 -.01111851  00000-0 -57339-1 0  9990
2 48048  87.4158 339.3753 0010958 157.1381 164.4490 15.19535005  1824
UTC
Height (km)
Latitude
Longitude
Inclination
Orbital Period
UTC large
Height (km)
Speed (km/s)
/
Latitude / Longitude
Inclination (degrees)
Orbital Period (minutes)
Azimuth
Elevation
Range (km)
Doppler Factor
iOS Compass Heading
iOS Angle

Next 30 passes for location: Hong Kong

Rise time Rise Azimuth (degrees) Set time Set Azimuth (degrees) Duration Max altitude (degrees)

No matching passes for this satellites